sat.trackr.live / text

‹ back to catalog

HIMAWARI-9

NORAD 41836 · 2016-064A

PAYLOAD ACTIVE UNKNOWN

§ Identity

Operator
Country
JPN
Launch date
2016-11-02
Launch site
TANSC
Launch vehicle
Mass (kg)
RCS (m²)
38.79

Purposes: comms, earth_obs

External: N2YO · Heavens-Above · Gunter

§ Orbital elements

Epoch: 2026-05-25T04:24:43.418304Z

Period
1,436.08 min
Inclination
0.0314°
Eccentricity
0.0000955
Mean motion
1.00272937 rev/d
Perigee alt
35,782.2 km
Apogee alt
35,790.3 km
Semi-major
42,164.4 km
B*
0.0000e+0
RAAN
142.5560°
Arg perigee
326.3214°
Mean anomaly
340.8456°
Rev number
3,497

§ Raw data

HIMAWARI-91 41836U 16064A   26145.18383586 -.00000277  00000+0  00000+0 0  99942 41836   0.0314 142.5560 0000955 326.3214 340.8456  1.00272937 34979

JSON: /api/v1/satellites/41836 · /tle

For live sub-satellite position, see the globe view (requires WebGL).

§ Visibility from observer

Set your observer location to see the next 7 days of passes ≥ 10°. The values pass through the URL so the page stays shareable.

No JS? Fill the form by hand. The geolocation button needs JavaScript.